Location: Anjeux
(47.8815°N, 6.2076°E)
Time: 13:41:17
(UTC+00:00)

NOSS 2-2 (D) - Pass Details

Date: 05 March 2021
Orbit: 456 x 1751 km, 63.3° (Epoch: 18 April)

Event Time Altitude Azimuth Distance (km) Brightness Sun altitude
Exits shadow 04:05:45 38° 339° (NNW) 767 3.9 -21.2°
Drops below altitude 10° 04:09:04 10° 31° (NNE) 1,834 6.6 -20.7°
Sets 04:11:37 0° 39° (NE) 2,883 7.8 -20.2°
